Tracking 19651 objects as of 22-Apr-2019
HD Live streaming from Space Station
objects crossing your sky now

LATINSAT A

Track LATINSAT A now!
10-day predictions
LATINSAT A is classified as:


NORAD ID: 27612
Int'l Code: 2002-058H
Perigee: 597.4 km
Apogee: 679.3 km
Inclination: 64.6 °
Period: 97.3 minutes
Semi major axis: 7009 km
RCS: 0.0297 m2 (small)
Launch date: December 20, 2002
Source: Argentina (ARGN)
Launch site: TYURATAM MISSILE AND SPACE COMPLEX (TTMTR)

Nanosatellite; planned constellation of 48 satellites, little LEO; asset tracking and monitoring services.
aabbcc
Your satellite tracking list
Your tracking list is empty




NASA's NSSDC Master Catalog

Two Line Element Set (TLE):
1 27612U 02058H   19111.95664405 -.00000053 +00000-0 +12662-4 0  9995
2 27612 064.5542 101.9973 0058429 253.7680 105.6991 14.79411561880696
Source of the keplerian elements: AFSPC